Location: Tafessasset
(32.5899°N, 5.4824°W)
Time: 14:19:03
(UTC+00:00)

Cosmos 1339 Rocket - Pass Details

Date: 18 February 2020
Orbit: 943 x 1005 km, 82.9° (Epoch: 29 March)

Event Time Altitude Azimuth Distance (km) Brightness Sun altitude
Exits shadow 05:08:00 52° 235° (SW) 1,156 4.5 -24.8°
Maximum altitude 05:09:05 60° 278° (W) 1,067 4.3 -24.5°
Drops below altitude 10° 05:15:06 10° 358° (N) 2,672 6.8 -23.3°
Sets 05:17:39 0° 2° (N) 3,625 7.5 -22.7°
